ROMMA est une association bénévole à but non lucratif. Votre soutien est indispensable : ADHERER à ROMMA ou FAIRE un DON

Crêts du Salève - (74, Haute-Savoie)

Salève (1270 m)   Longitude: 6° 10' 28'' E   Latitude: 46° 7' 42'' N Station romma n°73
 

Détail journalier du     <<     >>

Température Precipitation Humidité Vent Dir Rafale Dir. rafale Ensol.
Heure (°C) (mm) (%) (km/h) (km/h) (min)
01:00 13.607919SSO45S0
02:00 13.307920SSO48S0
03:00 13.807624S69S0
04:00 13.207844S72S0
05:00 13.207731SSE47S0
06:00 12.807829SSE44SSE0
07:00 13.107630S47S0
08:00 14.206934SSE50S0
09:00 14.706735SSE53SSE20
10:00 15.306434SSE55S60
11:00 15.506530SSE56SSE60
12:00 16.406527SSE48SSE60
13:00 16.906330SSE58S60
14:00 17.606028SSE56S60
15:00 17.905833S63S60
16:00 18.205828S48S60
17:00 17.906124S42SSE60
18:00 17.805922S40S50
19:00 17.406130S45S0
20:00 16.906632S45SSE0
21:00 17.006036S47S0
22:00 16.506133S44S0
23:00 16.805736S50S0
minuit 16.305941S53S0

Graphique du 13-10-2019

 

Serveur OMMA